GFSFLT2_925_spd_273.txt.gz
Wind_Speed
8 6 9 5 3 5 10 7 5 4 6 2 4 10 22 5 10 10 18 16 15 15 24 24 28 29 28 26 24 23 17 15
13 7 5 5 2 6 4 5 3 4 5 7 1 14 28 13 10 10 14 18 15 14 22 25 26 29 30 28 26 23 20 17
5 3 3 5 2 3 6 6 6 4 6 9 14 22 19 14 14 15 15 15 16 14 24 28 25 28 30 27 25 25 24 23
7 6 8 4 6 3 5 5 5 6 2 10 16 17 19 13 15 16 17 15 14 16 25 25 27 28 29 27 27 27 26 26
10 7 2 5 3 2 3 3 3 3 3 5 2 8 9 10 13 7 15 13 13 15 16 22 25 26 28 28 28 24 30 29
7 6 3 6 7 6 5 2 4 1 4 4 2 10 7 16 22 21 16 15 14 15 13 22 27 29 30 31 29 32 31 31
10 8 7 0 6 5 6 6 4 6 5 6 5 10 9 13 18 18 18 17 17 17 16 24 27 32 34 31 30 33 31 30
8 8 8 6 9 9 3 4 4 3 6 8 10 8 7 7 13 14 18 19 19 20 20 24 30 31 33 34 32 35 31 30
6 7 6 4 7 7 2 3 4 2 5 1 5 5 6 6 6 11 17 17 20 21 21 28 33 35 32 32 33 33 31 30
3 4 2 7 9 9 19 14 13 12 13 10 7 9 11 9 9 5 2 9 14 13 25 30 33 33 33 33 33 31 30 32
4 1 4 10 6 6 6 8 11 11 11 10 4 7 7 7 8 7 8 3 9 26 33 32 36 37 35 31 32 28 29 25
2 2 1 2 10 8 6 4 8 9 9 9 9 4 4 7 8 10 14 17 9 24 29 25 10 36 35 34 33 27 30 27
2 2 1 6 8 7 2 2 6 6 5 4 3 4 3 6 6 10 15 21 28 32 33 20 26 31 47 10 30 33 30 27
1 1 2 6 5 5 4 5 6 6 6 5 7 8 3 6 5 12 13 21 17 19 19 10 15 16 42 47 28 18 15 12
6 5 6 5 9 8 8 4 5 6 7 7 9 9 4 4 9 14 16 20 16 20 15 15 18 26 20 3 4 17 23 17
6 5 6 8 9 8 7 4 5 6 5 8 9 9 2 12 14 12 20 21 20 22 16 17 26 34 39 34 21 16 16 23
5 6 10 8 7 5 4 6 3 10 13 11 12 10 11 11 9 14 26 23 21 22 21 16 14 14 19 24 24 24 23 19
3 5 6 1 2 5 3 6 8 13 12 10 12 7 10 11 15 20 19 25 20 24 21 12 18 19 17 19 21 20 19 20
3 5 4 1 3 5 3 4 14 13 8 8 4 6 15 7 21 25 24 24 16 18 18 14 7 11 15 17 16 13 6 8

GFSFLT2_925_spd_276.txt.gz
Wind_Speed
7 7 10 4 1 7 7 3 2 3 6 9 1 3 6 4 11 12 15 16 17 15 23 25 28 31 34 32 30 28 26 22
9 4 3 10 7 1 3 5 3 4 5 6 4 7 5 4 5 7 12 15 13 14 22 26 31 33 34 31 32 28 26 22
3 2 9 1 2 6 6 5 6 3 6 8 11 9 11 13 15 9 14 14 14 13 22 26 28 30 33 29 28 28 24 21
4 8 4 6 7 6 5 4 3 5 6 3 8 14 14 20 11 11 15 14 14 15 21 21 25 27 30 29 27 27 24 22
9 8 6 2 3 6 4 3 4 5 5 5 4 10 19 19 10 10 11 11 12 12 16 20 23 27 29 29 28 26 25 23
6 6 3 6 6 4 6 3 4 5 4 1 4 7 13 16 17 18 17 14 14 14 14 24 27 30 32 33 31 32 31 29
5 6 3 4 1 5 6 5 5 6 8 8 11 11 20 24 20 15 10 14 17 17 16 23 25 27 32 36 34 33 32 34
3 6 6 3 6 3 5 1 2 7 5 5 8 9 4 7 10 7 11 16 17 17 16 22 29 30 33 33 36 35 37 40
3 2 3 5 6 10 7 8 4 6 5 2 8 12 8 6 6 8 13 16 18 19 20 30 34 37 35 39 41 36 40 40
3 3 3 5 6 18 16 8 7 7 8 6 3 3 6 6 8 6 3 6 9 13 23 32 28 17 6 10 9 11 39 39
5 4 4 3 3 1 7 5 4 6 7 6 5 4 5 7 8 8 4 7 9 21 15 12 19 22 20 13 20 20 42 17
3 5 6 4 7 4 6 3 3 6 5 6 6 4 5 7 9 12 15 17 17 8 28 31 24 22 15 15 23 43 51 29
2 2 1 4 7 2 4 6 2 3 4 4 2 4 6 8 10 14 14 19 21 21 28 29 21 18 13 26 20 13 47 40
3 4 3 3 4 7 6 3 4 4 4 6 6 8 11 9 8 10 13 15 16 16 13 14 11 10 16 17 16 17 26 18
5 5 4 3 9 4 5 4 2 4 5 3 6 7 13 9 9 10 14 13 12 12 11 12 13 26 29 27 15 15 21 17
5 7 6 7 4 6 4 4 7 6 7 8 9 13 12 8 5 7 11 13 15 18 16 15 21 20 22 12 5 7 16 20
5 3 6 5 5 4 4 9 8 9 11 12 14 9 8 7 6 10 14 12 16 16 16 16 20 14 9 8 3 6 12 16
4 5 5 3 3 4 5 9 5 10 11 12 12 7 8 9 9 13 15 14 12 10 9 5 2 2 2 7 6 7 9 10
5 5 6 4 6 2 11 11 11 16 12 15 16 16 19 13 11 16 15 14 9 7 8 8 9 12 12 9 6 3 4 7

GFSFLT2_925_spd_279.txt.gz
Wind_Speed
5 6 10 4 3 5 7 4 2 3 7 10 3 5 2 3 5 7 11 16 18 18 22 23 24 29 34 33 32 25 23 21
4 5 3 11 9 2 3 3 4 4 5 6 4 6 5 7 6 6 6 8 10 13 21 24 27 31 32 35 35 28 24 23
3 1 8 2 0 7 6 4 6 2 6 8 10 9 9 8 8 8 9 8 9 10 20 24 26 32 35 36 35 29 28 24
10 2 4 5 3 6 5 4 0 3 6 4 8 11 9 11 9 6 8 10 9 9 19 22 26 29 33 35 34 32 31 30
10 7 6 1 3 5 6 4 6 6 6 3 5 7 9 10 8 7 7 8 8 7 12 20 24 26 28 31 34 32 34 30
7 6 3 5 3 4 5 4 4 6 4 4 5 10 8 9 7 7 8 9 11 11 12 20 22 25 30 33 34 32 32 32
5 3 4 4 3 5 6 5 5 4 6 3 7 5 6 9 1 6 7 9 13 14 12 16 19 24 28 33 35 34 34 33
3 4 1 3 5 7 4 2 3 3 1 5 6 3 6 1 7 7 6 11 13 12 9 15 22 26 15 5 6 14 22 22
5 3 5 4 3 6 4 5 3 5 4 6 10 13 7 1 5 5 5 4 5 8 7 5 5 12 15 15 12 10 2 5
3 3 3 5 4 6 12 4 6 6 4 5 6 5 9 9 8 8 7 5 7 7 11 12 12 18 27 28 24 18 18 17
5 4 2 3 5 3 5 3 5 6 6 5 2 4 8 8 6 4 1 4 8 9 17 25 30 33 35 25 17 11 13 15
3 5 7 8 3 4 4 2 3 5 6 5 6 5 2 4 5 6 7 9 11 10 10 20 24 36 36 24 11 5 29 29
3 3 5 5 3 3 3 7 3 4 4 5 5 3 4 3 5 6 8 9 7 9 14 15 19 20 19 8 4 7 4 12
3 4 2 5 2 4 6 3 6 4 4 7 6 7 6 5 5 7 7 7 6 12 16 10 6 2 3 7 8 7 5 8
5 5 4 2 4 5 5 7 4 7 3 8 8 6 5 5 5 4 6 6 2 4 10 9 4 5 7 14 9 10 8 14
4 4 3 6 6 6 5 10 8 6 8 11 13 8 6 4 2 1 6 6 8 11 14 14 14 12 13 11 10 5 8 6
3 3 6 5 6 8 12 12 13 10 10 12 10 4 4 4 4 5 11 13 15 15 16 13 9 6 7 6 9 8 1 4
5 7 5 5 8 10 12 11 11 16 10 6 5 7 5 5 6 8 11 12 14 13 14 10 7 6 6 4 4 7 11 5
6 6 5 7 7 14 15 12 12 13 11 12 6 7 6 4 6 12 11 11 13 11 11 15 16 16 13 16 17 17 12 10

GFSFLT2_925_spd_285.txt.gz
Wind_Speed
3 4 3 5 4 2 3 2 2 3 3 6 4 8 9 7 7 8 7 8 11 13 17 19 20 22 23 22 24 23 21 19
4 5 8 2 10 3 0 1 2 1 4 3 1 2 4 6 7 5 3 7 9 10 16 19 21 19 18 20 24 25 20 18
3 6 9 5 4 4 4 2 2 2 3 5 5 3 5 6 3 3 4 6 8 8 13 14 16 19 20 19 20 22 22 23
2 4 2 1 6 6 4 4 1 2 2 6 7 7 6 7 5 2 4 5 6 8 12 15 17 18 20 18 19 20 21 21
4 4 4 3 4 3 5 3 5 2 0 4 8 9 8 5 4 2 3 4 5 4 8 11 13 17 20 20 21 20 20 21
7 3 5 5 5 6 6 5 7 4 2 5 14 13 12 10 7 3 0 1 4 4 6 10 13 17 19 19 19 19 20 20
3 2 2 5 10 11 9 3 4 4 3 7 10 10 9 8 6 5 3 1 2 4 6 10 13 15 17 18 18 20 22 22
4 3 2 3 2 8 4 7 5 6 3 3 5 5 8 7 7 9 6 1 3 6 8 12 16 18 18 18 20 20 19 18
6 3 5 4 3 5 4 5 9 6 6 4 8 12 11 9 8 10 9 8 7 7 8 12 12 12 14 13 10 10 10 12
4 6 6 3 1 4 11 4 5 14 10 7 8 7 7 7 8 9 9 9 10 11 13 12 5 4 3 4 7 12 13 15
5 5 3 3 8 8 4 5 5 10 9 8 6 2 6 6 6 7 9 10 11 12 11 11 10 7 9 11 11 12 13 12
4 5 7 6 16 5 8 7 8 7 9 10 3 3 2 5 7 9 11 11 12 13 14 15 12 12 15 14 13 10 5 3
5 3 1 5 11 9 5 6 15 11 8 9 4 2 5 4 8 10 11 13 12 14 15 13 12 13 14 11 8 4 4 4
3 4 4 12 11 10 5 12 15 11 9 7 6 6 6 7 8 10 10 10 10 11 12 10 8 9 10 9 6 6 6 5
5 4 2 15 3 4 16 17 10 12 9 9 8 6 7 8 8 8 9 8 8 9 10 10 10 9 10 7 5 4 4 6
6 3 6 8 5 15 15 13 12 9 10 8 8 9 9 9 8 10 12 11 11 13 14 11 9 7 6 6 6 2 0 4
5 5 9 6 11 16 13 14 13 10 9 7 9 10 10 10 9 10 11 11 9 9 8 8 8 9 8 6 7 5 4 9
6 17 4 14 13 16 17 14 13 12 10 8 11 12 12 10 10 10 11 10 10 10 11 11 12 12 12 10 8 9 15 20
5 15 8 16 16 13 15 13 10 10 10 12 13 15 14 13 12 12 11 10 10 11 11 11 11 11 11 9 7 7 13 13

GFSFLT2_925_spd_291.txt.gz
Wind_Speed
15 11 10 4 8 14 8 6 8 11 14 13 12 12 11 10 8 8 7 7 7 10 12 17 18 19 19 19 20 22 23 21
12 6 10 6 21 3 10 2 11 6 15 11 12 10 9 9 9 8 10 8 9 10 12 15 19 20 19 19 20 20 21 21
12 12 13 10 10 12 7 5 6 9 9 10 5 4 11 10 7 10 11 10 10 9 13 15 17 19 19 19 18 19 21 22
16 17 10 10 10 8 5 11 4 10 11 9 8 7 2 5 6 5 7 9 9 9 12 14 16 18 19 20 20 19 19 19
16 9 10 9 12 11 9 16 2 5 10 12 11 9 4 6 6 4 5 5 6 7 6 6 10 11 15 17 18 18 18 19
12 14 16 16 12 8 11 5 10 8 14 15 8 8 6 6 5 6 3 6 3 3 5 3 2 2 7 9 12 14 13 16
8 4 5 12 10 9 12 3 4 16 12 15 7 7 7 9 8 8 7 6 7 7 6 3 3 2 3 7 9 10 10 13
12 10 6 8 13 11 8 1 7 4 11 14 9 8 9 11 12 13 13 13 11 10 10 11 8 5 4 3 5 7 7 8
13 10 10 11 10 8 7 5 6 7 9 14 13 11 11 12 13 13 12 11 11 11 12 12 12 11 10 9 8 8 10 12
10 14 15 9 17 13 7 5 5 7 9 13 14 12 13 13 12 11 11 10 10 11 12 13 13 13 12 12 13 14 15 13
11 14 11 6 6 7 8 9 5 6 12 15 15 15 12 12 12 11 10 10 11 12 13 14 15 14 13 14 14 12 11 10
14 13 16 13 17 13 10 8 8 11 14 14 14 10 11 11 12 12 13 12 13 13 14 14 12 12 13 12 10 9 6 6
11 13 12 11 17 8 10 10 16 16 14 12 5 11 14 13 12 13 12 13 14 14 14 12 11 10 10 10 10 8 8 8
13 11 11 18 14 10 5 13 16 15 12 11 13 14 13 12 11 11 12 12 13 14 12 10 9 10 11 10 7 7 6 6
14 14 12 19 12 11 10 13 14 13 13 14 14 14 13 11 11 11 12 11 12 13 12 10 9 10 10 9 6 2 4 8
13 8 15 17 11 13 12 15 14 14 14 14 14 14 12 12 11 10 11 11 11 10 11 10 10 9 10 7 5 7 9 8
5 5 10 14 13 14 13 15 15 15 14 14 15 13 13 11 11 12 11 10 10 11 11 9 9 10 8 8 8 10 9 10
7 13 9 15 15 14 16 15 17 17 14 14 15 14 13 12 13 13 13 11 11 11 9 8 7 8 7 8 7 9 9 8
8 17 16 16 15 14 16 17 17 16 16 17 17 17 17 15 14 15 14 11 10 10 10 8 7 7 5 5 6 5 5 3